Wind_Speed
22 22 22 23 22 22 22 22 22 23 23 23 23 23 23 23 23 23 23 23 23 23 23 23 23 23 22 22 23 23 23 23 24 24 24 24 24 23 24 24 24 24 24
23 23 23 24 23 23 23 23 23 23 23 24 24 24 25 25 25 25 24 24 24 23 24 24 24 24 23 22 22 22 22 22 24 24 24 24 25 24 24 24 24 24 25
24 24 24 24 24 24 24 24 24 24 25 25 25 26 26 26 26 25 25 25 25 24 24 24 24 24 23 23 23 23 22 22 22 23 24 24 24 24 24 25 24 24 24
25 25 25 25 24 24 24 25 25 25 26 26 26 26 26 25 25 24 24 25 25 25 25 25 25 25 24 24 24 24 23 23 22 23 24 24 24 24 24 24 25 25 24
25 26 25 24 25 25 26 26 26 26 26 26 25 25 25 24 24 23 24 24 25 25 25 25 25 25 24 24 24 24 24 23 23 23 23 23 24 24 25 25 25 25 25
26 26 25 25 25 26 26 26 26 26 25 25 24 24 24 24 23 23 23 24 25 25 25 24 24 24 24 24 25 25 24 24 24 24 23 24 24 24 24 25 25 26 26
26 26 26 26 25 26 25 25 25 26 26 25 25 25 24 24 24 24 24 24 24 24 24 24 24 24 25 25 25 25 25 25 25 24 24 24 24 24 24 25 25 26 25
26 27 26 26 25 25 25 26 26 26 26 25 25 24 23 23 24 24 24 24 24 24 23 24 24 25 25 26 25 25 25 25 25 24 24 24 24 24 24 25 25 24 24
27 26 26 26 26 25 26 27 27 27 26 25 25 24 23 23 23 23 24 24 24 23 24 24 24 25 25 26 25 25 25 25 25 24 24 24 24 24 24 25 25 24 24
27 26 26 26 27 27 27 27 27 26 26 25 25 24 24 23 23 23 24 23 23 23 23 24 25 25 25 25 25 26 26 25 25 25 24 23 24 25 25 25 25 25 25
26 26 27 27 28 28 28 27 25 25 25 25 25 25 24 24 23 24 23 23 23 24 24 24 25 24 24 24 25 25 25 25 24 24 24 24 24 25 25 25 25 25 25
25 26 26 27 27 27 27 26 26 25 25 25 25 25 24 24 23 23 23 23 24 24 25 25 24 24 23 24 24 24 24 24 24 24 24 24 25 26 26 25 25 25 24
25 25 26 26 27 27 27 26 25 25 25 25 25 24 25 25 24 23 23 23 23 24 24 24 24 24 23 23 23 23 23 23 23 24 24 25 25 25 25 25 24 23 22
25 26 26 26 26 26 26 26 26 26 25 25 25 25 24 24 24 24 23 23 23 23 23 23 23 23 22 23 23 23 23 23 23 23 24 25 25 25 25 24 24 24 23
25 26 26 26 26 26 26 27 26 26 26 25 25 24 24 23 23 23 22 22 22 23 23 22 22 23 23 23 23 24 24 23 23 23 23 23 23 24 23 23 23 22 23
26 28 26 26 26 26 27 26 26 26 26 25 25 24 23 23 23 22 21 21 22 22 22 21 22 22 23 23 24 23 22 22 22 22 22 22 22 22 21 21 21 21 21
26 27 27 26 27 27 27 27 26 26 26 26 25 24 24 23 22 21 21 22 22 22 22 22 22 21 21 22 22 21 20 20 21 20 20 19 19 19 18 18 19 20 20
26 27 27 27 27 27 27 27 26 26 26 25 24 23 23 23 22 22 22 22 23 23 23 23 22 21 20 20 20 19 19 18 19 19 18 17 17 18 18 18 19 20 20
26 27 27 27 27 27 27 26 26 26 25 24 24 24 23 23 23 23 23 23 23 23 23 22 21 20 20 19 19 18 18 17 17 17 17 17 17 17 18 18 19 20 20
27 27 27 27 27 28 27 27 27 26 26 25 25 25 24 24 24 24 23 22 22 22 21 20 20 20 19 19 18 18 17 16 16 17 17 18 18 19 18 18 19 20 21
28 27 27 27 28 28 27 27 26 26 26 26 26 25 25 25 24 24 22 22 22 21 20 20 20 19 19 19 19 19 18 18 17 17 18 19 19 20 20 20 20 21 21
28 27 28 28 27 27 27 26 26 26 26 26 26 25 25 25 24 23 22 21 21 21 21 20 20 19 19 19 19 19 19 18 17 17 17 18 19 20 20 20 20 20 21
28 27 28 27 27 26 26 26 25 25 25 26 25 25 25 25 24 23 22 21 21 20 20 20 20 19 19 18 18 18 18 18 18 17 17 18 18 18 19 19 20 20 21
28 27 27 27 27 27 26 26 25 25 25 25 25 26 26 25 24 22 21 20 20 20 19 19 19 18 18 17 17 17 17 17 18 17 17 17 16 17 18 19 20 20 19
28 27 27 27 27 26 26 26 25 25 25 25 26 26 26 24 23 22 21 20 19 19 19 19 19 19 18 17 17 16 16 16 16 16 15 16 16 17 18 18 18 19 19
28 28 28 27 27 27 27 27 26 26 26 26 27 26 25 24 22 21 20 20 20 19 19 19 18 18 18 17 16 16 15 15 15 15 15 15 15 16 16 17 18 18 18
Wind_Direction
310 309 308 308 308 307 308 306 305 305 305 305 304 299 297 295 295 295 297 296 295 293 292 290 288 287 286 284 284 283 279 275 270 267 264 265 266 266 266 264 262 261 261
309 309 308 308 307 307 307 308 307 305 306 306 305 300 297 294 292 292 293 294 294 292 290 289 287 286 285 284 285 285 282 278 273 269 265 265 266 267 265 265 262 260 260
311 310 310 310 308 308 307 308 309 309 307 305 304 302 299 296 292 292 292 294 292 290 289 286 285 285 285 285 285 285 283 280 275 270 268 266 265 267 265 265 263 262 261
310 311 310 309 308 307 307 308 308 308 308 307 304 303 301 298 295 293 292 293 292 291 290 287 284 284 284 284 284 283 283 281 278 275 270 267 266 267 265 265 265 262 261
312 313 312 310 308 307 308 308 308 309 309 308 306 305 303 302 299 295 294 294 293 293 290 287 283 282 283 283 283 282 281 281 278 276 273 268 267 267 266 265 265 264 263
313 315 315 314 312 310 310 310 310 312 312 310 308 307 305 304 302 300 298 296 294 292 289 287 284 282 282 283 283 282 281 281 279 275 272 270 269 269 266 265 266 266 264
314 315 316 315 314 313 312 312 312 313 313 312 310 308 306 304 303 301 299 297 295 291 288 288 285 283 282 282 282 282 281 279 278 275 272 271 270 269 268 267 267 266 265
313 315 315 315 315 314 314 314 313 313 312 311 311 310 309 306 303 301 298 297 295 292 289 288 285 284 283 282 282 282 280 278 276 273 271 270 270 270 269 269 268 267 267
313 315 316 316 316 315 315 314 313 313 312 310 311 310 309 307 305 303 301 298 295 292 289 289 285 284 282 281 279 280 280 279 274 271 270 270 270 269 269 269 270 270 269
314 315 315 316 317 317 315 313 311 313 313 312 312 311 309 307 306 305 301 298 296 294 291 289 288 285 282 280 279 279 278 277 274 269 267 269 270 270 269 268 268 268 267
315 315 315 316 317 318 317 316 315 316 315 314 312 311 309 308 308 307 304 300 298 295 292 291 291 287 283 281 279 279 278 276 273 271 267 268 270 269 268 266 266 267 266
316 315 315 317 317 317 318 317 316 315 315 314 313 312 311 310 309 309 305 303 300 297 294 292 292 288 284 283 283 282 280 276 272 270 269 270 269 268 267 267 267 265 264
314 314 316 317 317 318 319 319 319 319 318 317 314 311 311 311 310 309 305 303 302 301 298 294 293 290 286 286 288 286 283 276 271 269 270 271 268 268 268 268 266 265 264
313 314 315 317 318 318 319 319 319 319 318 317 317 315 313 312 311 310 307 305 305 305 303 299 296 293 290 288 289 287 284 278 273 271 270 269 268 268 269 269 265 264 262
313 314 314 315 317 318 318 318 319 319 319 318 317 314 313 311 310 309 307 306 306 305 304 301 297 295 294 292 290 286 284 280 276 272 270 268 267 269 268 268 266 264 262
312 313 314 316 316 318 317 318 318 319 319 318 317 315 312 310 309 308 309 307 306 305 304 301 299 297 296 296 292 288 284 282 278 274 271 269 269 269 267 266 263 263 263
312 312 313 314 314 316 316 317 317 317 317 317 316 315 313 312 311 310 309 308 307 306 305 304 303 299 298 297 296 291 286 285 281 276 272 271 269 267 266 263 260 262 264
312 312 313 312 313 315 316 315 316 317 318 317 315 314 312 311 310 309 309 307 305 305 306 307 304 300 299 298 297 294 290 286 282 277 273 268 268 268 267 264 262 263 266
310 311 311 312 313 314 315 315 316 317 317 316 315 313 310 308 308 308 308 307 306 306 307 309 306 301 299 297 296 295 291 287 283 277 272 268 270 270 268 266 263 264 266
311 311 310 311 311 313 313 314 315 315 315 314 313 312 311 311 310 309 308 308 309 309 310 310 308 305 301 300 297 295 291 287 283 279 273 270 270 270 270 267 265 266 266
309 310 310 310 311 312 313 313 314 313 313 314 314 313 313 313 311 311 310 309 309 308 308 309 309 307 303 302 299 296 292 288 285 282 276 271 269 269 268 270 269 267 267
308 309 310 311 311 313 313 312 311 312 313 314 315 315 315 314 312 311 309 307 306 306 307 308 308 306 302 299 298 297 293 289 286 284 280 274 272 271 271 272 270 269 269
310 310 311 311 312 313 314 313 311 311 312 314 315 315 316 314 312 310 309 308 307 306 308 307 307 307 303 299 296 295 292 289 288 286 282 276 273 270 270 272 270 271 271
308 310 310 310 311 311 312 311 310 311 312 314 315 315 314 314 312 311 310 308 308 308 308 308 308 309 307 302 298 297 294 293 292 287 280 277 274 272 271 270 270 271 271
307 308 309 309 310 310 311 311 310 311 312 314 314 315 315 315 314 313 312 310 309 311 310 308 309 309 309 308 306 302 299 294 292 289 285 280 277 274 272 270 269 269 270
306 308 309 309 309 310 311 311 310 311 312 313 313 313 313 313 314 313 312 310 310 310 309 308 309 311 312 311 308 305 303 299 295 293 289 286 281 278 274 271 271 272 271
Height
5850 5847 5845 5842 5840 5838 5835 5833 5831 5828 5826 5823 5821 5819 5817 5815 5813 5812 5810 5809 5807 5806 5805 5804 5803 5802 5802 5801 5801 5800 5800 5800 5800 5801 5801 5802 5803 5804 5805 5805 5806 5807 5809
5847 5844 5841 5839 5836 5834 5831 5829 5826 5823 5821 5818 5815 5813 5811 5809 5807 5806 5804 5803 5801 5800 5799 5798 5797 5796 5796 5796 5795 5794 5794 5793 5793 5794 5794 5795 5797 5797 5798 5799 5800 5801 5803
5843 5841 5838 5835 5832 5830 5827 5824 5821 5818 5816 5813 5810 5807 5804 5802 5801 5799 5798 5797 5795 5794 5793 5792 5791 5790 5790 5790 5789 5788 5787 5787 5787 5787 5788 5789 5790 5791 5792 5793 5794 5795 5796
5840 5837 5834 5831 5828 5826 5823 5820 5817 5814 5810 5807 5804 5801 5798 5796 5794 5793 5792 5790 5789 5787 5786 5785 5785 5784 5783 5783 5783 5782 5781 5781 5781 5780 5781 5782 5783 5784 5785 5786 5787 5788 5789
5836 5833 5830 5827 5824 5821 5818 5815 5812 5808 5804 5801 5798 5795 5792 5790 5788 5786 5785 5784 5782 5781 5780 5778 5778 5777 5777 5776 5776 5775 5774 5774 5774 5774 5774 5775 5776 5777 5778 5780 5781 5781 5782
5832 5829 5826 5823 5819 5816 5813 5810 5807 5803 5799 5795 5792 5790 5787 5784 5782 5780 5779 5777 5776 5774 5773 5772 5771 5770 5770 5769 5769 5768 5767 5767 5767 5767 5767 5768 5769 5770 5771 5772 5773 5774 5776
5829 5825 5822 5818 5815 5812 5808 5805 5801 5798 5794 5790 5787 5784 5781 5778 5776 5774 5772 5771 5769 5767 5766 5765 5764 5763 5763 5762 5761 5760 5760 5760 5760 5760 5760 5761 5762 5763 5763 5764 5765 5767 5768
5826 5821 5818 5814 5811 5807 5804 5800 5796 5793 5789 5785 5782 5778 5775 5772 5770 5768 5766 5764 5762 5761 5759 5758 5757 5756 5755 5754 5753 5753 5752 5752 5752 5752 5753 5753 5754 5755 5756 5757 5758 5759 5760
5822 5818 5814 5810 5807 5803 5799 5795 5791 5787 5783 5780 5777 5773 5770 5767 5764 5762 5759 5757 5755 5754 5752 5751 5750 5749 5747 5747 5746 5745 5745 5744 5744 5745 5745 5746 5747 5747 5748 5749 5750 5751 5752
5817 5813 5809 5806 5802 5798 5794 5789 5785 5782 5778 5774 5771 5768 5765 5761 5759 5756 5753 5751 5748 5747 5745 5744 5743 5741 5740 5739 5739 5738 5737 5737 5737 5737 5738 5738 5739 5740 5740 5741 5742 5743 5744
5812 5809 5805 5801 5797 5794 5789 5784 5780 5776 5772 5769 5766 5762 5759 5755 5752 5750 5747 5745 5743 5741 5739 5737 5735 5734 5733 5732 5731 5730 5729 5728 5729 5729 5730 5731 5731 5732 5733 5733 5734 5735 5736
5808 5805 5801 5797 5793 5788 5784 5779 5774 5771 5768 5764 5761 5757 5753 5750 5747 5744 5741 5739 5737 5734 5732 5730 5728 5727 5726 5725 5723 5722 5722 5721 5721 5721 5722 5723 5723 5724 5724 5725 5726 5726 5728
5804 5801 5797 5793 5789 5784 5779 5774 5770 5766 5763 5759 5756 5752 5748 5745 5742 5739 5736 5733 5731 5729 5726 5724 5722 5720 5719 5718 5717 5715 5714 5714 5714 5714 5715 5715 5715 5716 5716 5717 5718 5719 5720
5799 5796 5792 5788 5785 5780 5776 5771 5767 5762 5759 5755 5751 5747 5744 5740 5737 5734 5731 5728 5726 5723 5721 5718 5716 5714 5713 5711 5710 5709 5707 5707 5707 5707 5707 5708 5708 5709 5709 5710 5710 5712 5713
5794 5791 5787 5783 5780 5776 5771 5767 5763 5758 5754 5750 5746 5743 5739 5736 5733 5729 5726 5723 5721 5718 5716 5713 5711 5709 5707 5705 5703 5702 5701 5700 5700 5700 5700 5701 5701 5701 5702 5703 5704 5705 5707
5790 5786 5783 5778 5775 5771 5767 5762 5758 5753 5749 5745 5741 5738 5734 5731 5728 5725 5722 5719 5716 5714 5711 5709 5706 5703 5701 5699 5697 5695 5694 5693 5693 5693 5693 5694 5694 5695 5695 5696 5698 5699 5701
5785 5782 5778 5774 5770 5766 5762 5757 5753 5749 5744 5740 5736 5733 5729 5726 5724 5721 5718 5715 5712 5709 5706 5703 5701 5698 5696 5693 5691 5689 5688 5687 5687 5686 5687 5687 5688 5689 5689 5691 5692 5694 5695
5781 5777 5773 5769 5766 5761 5757 5753 5748 5744 5740 5736 5732 5728 5725 5722 5719 5716 5713 5710 5707 5704 5701 5698 5695 5693 5690 5688 5686 5684 5683 5682 5681 5681 5681 5682 5683 5683 5684 5685 5687 5688 5689
5776 5772 5768 5764 5761 5756 5752 5748 5744 5740 5735 5731 5727 5724 5721 5718 5715 5712 5708 5705 5702 5700 5697 5694 5691 5688 5686 5684 5682 5680 5678 5677 5676 5676 5676 5677 5678 5679 5679 5680 5681 5683 5683
5770 5767 5763 5759 5755 5751 5747 5743 5739 5735 5731 5727 5723 5719 5716 5713 5710 5707 5703 5700 5697 5694 5692 5689 5686 5683 5681 5679 5677 5675 5674 5673 5672 5671 5671 5672 5672 5673 5674 5675 5676 5677 5678
5765 5762 5758 5754 5750 5746 5742 5738 5734 5730 5726 5722 5719 5715 5711 5708 5705 5701 5698 5695 5692 5690 5687 5684 5682 5679 5676 5674 5672 5670 5669 5668 5667 5666 5666 5666 5667 5667 5668 5669 5670 5670 5671
5760 5757 5753 5749 5745 5741 5737 5734 5730 5726 5722 5718 5714 5710 5707 5703 5700 5696 5694 5691 5688 5685 5682 5680 5677 5674 5671 5669 5667 5665 5664 5662 5661 5661 5661 5661 5661 5662 5662 5663 5663 5664 5665
5755 5751 5747 5744 5740 5736 5732 5729 5725 5721 5717 5713 5710 5706 5702 5699 5695 5692 5689 5686 5683 5680 5678 5675 5672 5669 5667 5664 5662 5660 5658 5657 5656 5655 5655 5655 5655 5655 5656 5656 5657 5657 5658
5749 5745 5742 5738 5735 5731 5727 5723 5720 5716 5712 5709 5705 5701 5697 5694 5690 5687 5684 5681 5678 5676 5673 5670 5668 5665 5662 5659 5657 5655 5653 5652 5650 5649 5649 5649 5649 5649 5649 5650 5650 5651 5651
5743 5740 5736 5733 5729 5725 5722 5718 5714 5711 5707 5704 5700 5696 5693 5689 5685 5682 5679 5677 5674 5671 5669 5666 5663 5661 5658 5655 5653 5650 5649 5647 5645 5644 5643 5643 5643 5643 5643 5644 5644 5644 5645
5737 5733 5730 5727 5723 5719 5716 5712 5709 5705 5702 5698 5695 5691 5688 5684 5681 5678 5676 5673 5670 5667 5664 5662 5659 5656 5654 5651 5649 5646 5644 5642 5641 5639 5638 5637 5637 5637 5637 5637 5637 5637 5638